TimeMDT,TemperatureF,Dew PointF,Humidity,Sea Level PressureIn,VisibilityMPH,Wind Direction,Wind SpeedMPH,Gust SpeedMPH,PrecipitationIn,Events,Conditions,WindDirDegrees,DateUTC
12:53 AM,33.1,26.1,75,30.24,10.0,North,5.8,-,N/A,,Overcast,360,2012-11-03 06:53:00
1:53 AM,32.0,25.0,75,30.24,10.0,NE,4.6,-,N/A,,Overcast,40,2012-11-03 07:53:00
2:53 AM,32.0,25.0,75,30.24,10.0,ESE,3.5,-,N/A,,Overcast,110,2012-11-03 08:53:00
3:53 AM,32.0,26.1,79,30.23,10.0,SSE,3.5,-,N/A,,Overcast,150,2012-11-03 09:53:00
4:53 AM,32.0,26.1,79,30.23,10.0,ESE,3.5,-,N/A,,Overcast,120,2012-11-03 10:53:00
5:53 AM,32.0,26.1,79,30.24,10.0,ESE,6.9,-,N/A,,Overcast,110,2012-11-03 11:53:00
6:53 AM,32.0,26.1,79,30.23,10.0,East,6.9,-,N/A,,Overcast,90,2012-11-03 12:53:00
7:53 AM,32.0,26.1,79,30.23,10.0,East,6.9,-,N/A,,Overcast,100,2012-11-03 13:53:00
8:21 AM,32.0,26.6,80,30.17,10.0,SE,6.9,-,N/A,,Overcast,130,2012-11-03 14:21:00
8:53 AM,32.0,27.0,82,30.25,10.0,SE,9.2,-,N/A,,Overcast,130,2012-11-03 14:53:00
9:53 AM,32.0,28.0,85,30.25,8.0,SE,9.2,-,N/A,,Overcast,140,2012-11-03 15:53:00
10:53 AM,33.1,28.0,82,30.25,10.0,SE,11.5,-,N/A,,Overcast,130,2012-11-03 16:53:00
11:53 AM,34.0,28.9,82,30.24,10.0,SE,11.5,-,N/A,,Overcast,130,2012-11-03 17:53:00
12:53 PM,35.1,28.9,78,30.22,10.0,SE,11.5,-,N/A,,Overcast,130,2012-11-03 18:53:00
1:53 PM,36.0,30.0,79,30.20,10.0,ESE,10.4,-,N/A,,Overcast,120,2012-11-03 19:53:00
2:53 PM,36.0,30.0,79,30.18,10.0,ESE,13.8,-,N/A,,Overcast,110,2012-11-03 20:53:00
3:53 PM,37.0,30.9,79,30.18,10.0,ESE,12.7,-,N/A,,Overcast,120,2012-11-03 21:53:00
4:53 PM,37.0,30.9,79,30.17,10.0,ESE,12.7,-,N/A,,Overcast,120,2012-11-03 22:53:00
5:53 PM,36.0,30.9,82,30.17,10.0,ESE,15.0,-,N/A,,Overcast,110,2012-11-03 23:53:00
6:53 PM,36.0,30.9,82,30.14,10.0,ESE,15.0,-,N/A,,Overcast,110,2012-11-04 00:53:00
7:53 PM,36.0,32.0,86,30.14,10.0,ESE,13.8,-,N/A,,Overcast,120,2012-11-04 01:53:00
8:53 PM,36.0,32.0,86,30.13,10.0,ESE,11.5,-,N/A,,Overcast,110,2012-11-04 02:53:00
9:12 PM,35.6,32.0,87,30.05,10.0,ESE,13.8,-,N/A,,Overcast,110,2012-11-04 03:12:00
9:53 PM,36.0,33.1,89,30.12,10.0,ESE,15.0,-,N/A,,Overcast,120,2012-11-04 03:53:00
10:53 PM,36.0,34.0,93,30.09,10.0,ESE,16.1,-,N/A,,Overcast,120,2012-11-04 04:53:00
11:39 PM,35.6,32.0,87,30.00,10.0,ESE,12.7,-,N/A,,Overcast,120,2012-11-04 05:39:00
11:53 PM,35.1,32.0,89,30.07,10.0,ESE,16.1,-,N/A,,Overcast,120,2012-11-04 05:53:00